Regional Weather Roundup
Issued by NWS Green Bay, WI

Home | Current Version | Previous Version | Text Only | Print | Product List | Glossary On
Versions: 1 2 3 4 5 6 7 8 9 10 11 12 13 14 15 16 17 18 19 20 21 22 23 24 25 26 27 28 29 30 31 32 33 34 35 36 37 38 39 40 41 42 43 44 45 46 47 48 49 50
000
ASUS43 KGRB 291810
RWRGRB

NORTH-CENTRAL AND NORTHEAST WISCONSIN REGIONAL WEATHER ROUNDUP
NATIONAL WEATHER SERVICE GREEN BAY WI
100 PM CDT SUN MAR 29 2015

WIZ005-009-010>012-018-019-291900-
NORTH CENTRAL WISCONSIN

CITY           SKY/WX    TMP DP  RH WIND       PRES   REMARKS
IRONWOOD       CLOUDY    34  30  86 SW13      29.45F
MANITOWISH WTR LGT SNOW  32  32 100 SW9G16    29.49F VSB 1
ARBOR VITAE    MIX PCPN  34  32  92 SW7       29.50F
EAGLE RIVER    MIX PCPN  32  29  89 SW8       29.50F
LAND O LAKES   LGT SNOW  32  30  93 SW9G16    29.50F
RHINELANDER    FRZ RAIN  32  29  88 SW14G23   29.51F FOG
PHILLIPS       LGT SNOW  32  31  98 SW7       29.51S
ANTIGO         CLOUDY    31  31  99 SW14      29.55F FOG
TOMAHAWK       LGT RAIN  32  30  93 CALM      29.53F
MERRILL        LGT SNOW  32  32  99 SW9G16    29.55F
$$

WIZ013-073-291900-
NORTHEAST WISCONSIN

CITY           SKY/WX    TMP DP  RH WIND       PRES   REMARKS
IRON MOUNTAIN  CLOUDY    31  28  89 S14G24    29.54F FOG
MARINETTE      CLOUDY    32  28  86 SW18G25   29.63F
OCONTO         CLOUDY    32  32  99 S16G24    29.65F
$$

WIZ017-030-035>037-045-291900-
CENTRAL WISCONSIN

CITY           SKY/WX    TMP DP  RH WIND       PRES   REMARKS
MEDFORD        MIX PCPN  32  32  99 SW9G16    29.54S
WAUSAU         LGT RAIN  33  31  92 S17G25    29.55F FOG
MOSINEE        CLOUDY    32  32 100 S14       29.57F FOG
MARSHFIELD     CLOUDY    35  32  88 SW18      29.57F FOG
WISC RAPIDS    CLOUDY    34  31  88 SW17G25   29.64F
STEVENS POINT  CLOUDY    32  30  94 SW15G24   29.61F FOG
WAUPACA        CLOUDY    35  32  87 S15G23    29.64F
SHAWANO        CLOUDY    34  31  90 SW8       29.63F
CLINTONVILLE   CLOUDY    32  32 100 S12G18    29.64F
$$

WIZ038-039-048-051-291900-
FOX VALLEY

CITY           SKY/WX    TMP DP  RH WIND       PRES   REMARKS
NWS GREEN BAY  NOT AVBL
APPLETON       CLOUDY    32  28  86 SW16G22   29.69F
OSHKOSH        CLOUDY    33  29  85 S23G36    29.69F
FOND DU LAC    CLOUDY    33  29  85 S28G41    29.72F
$$

WIZ022-050-052-291900-
EAST CENTRAL WISCONSIN

CITY           SKY/WX    TMP DP  RH WIND       PRES   REMARKS
STURGEON BAY   CLOUDY    32  28  86 S17G26    29.68F
MANITOWOC      LGT RAIN  34  30  86 S16       29.72F FOG
SHEBOYGAN      LGT SNOW  33  30  88 S21G30    29.76F FOG
$$

LMZ563-521-522-541>543-291900-
LAKESHORE

STATION/POSITION TIME  TEMP    WIND        PRES    VSBY  WAVE
                       AIR SEA DIR/SP/G                  HT/PER
                 (UTC) (F)     (DEG/KT/KT) (MB)    (MI)  (FT/S)
SHEBOYGAN LKSHOR 1800   34     200/ 25/ 28 1008.4F
KEWAUNEE LKSHORE 1800   32     200/ 20/ 28 1005.9F
NORTHPORT PIER   1700   33     170/ 18/ 36 1005.8F
SISTER BAY LKSHO 1800   32     180/ 14/ 17   N/A
CHAMBERS ISLAND  1800   31     160/ 11/ 21 1004.4F
MENOMINEE LKSHOR 1800   32     310/ 18     1004.9S
$$


USA.gov is the U.S. government's official web portal to all federal, state and local government web resources and services.